Time,TemperatureF,DewpointF,PressureIn,WindDirection,WindDirectionDegrees,WindSpeedMPH,WindSpeedGustMPH,Humidity,HourlyPrecipIn,Conditions,Clouds,dailyrainin,SoftwareType,DateUTC
2013-03-13 00:00:00,35.2,6.9,30.09,West,262,2.7,12.8,30,0.00,,SKC,0.00,VWS V14.01,2013-03-13 04:00:00,
2013-03-13 00:20:00,35.1,6.8,30.06,West,272,6.3,13.2,30,0.00,,SKC,0.00,VWS V14.01,2013-03-13 04:20:00,
2013-03-13 00:40:00,34.7,6.4,30.06,WSW,251,10.1,11.0,30,0.00,,SKC,0.00,VWS V14.01,2013-03-13 04:40:00,
2013-03-13 01:00:00,35.1,6.8,30.09,West,262,7.6,12.8,30,0.00,,SKC,0.00,VWS V14.01,2013-03-13 05:00:00,
2013-03-13 01:20:00,34.5,6.3,30.09,NW,325,4.9,8.1,30,0.00,,SKC,0.00,VWS V14.01,2013-03-13 05:20:00,
2013-03-13 01:40:00,34.9,6.6,30.09,West,268,3.1,8.1,30,0.00,,SKC,0.00,VWS V14.01,2013-03-13 05:40:00,
2013-03-13 02:00:00,34.9,7.3,30.09,West,280,5.4,10.5,31,0.00,,SKC,0.00,VWS V14.01,2013-03-13 06:00:00,
2013-03-13 02:20:00,34.9,7.3,30.09,WNW,285,6.3,7.6,31,0.00,,SKC,0.00,VWS V14.01,2013-03-13 06:20:00,
2013-03-13 02:40:00,34.7,6.4,30.09,NNW,343,4.0,6.3,30,0.00,,SKC,0.00,VWS V14.01,2013-03-13 06:40:00,
2013-03-13 03:00:00,33.8,6.4,30.09,WNW,291,3.6,6.3,31,0.00,,SKC,0.00,VWS V14.01,2013-03-13 07:00:00,
2013-03-13 03:20:00,33.8,6.4,30.06,WSW,246,8.3,8.3,31,0.00,,SKC,0.00,VWS V14.01,2013-03-13 07:20:00,
2013-03-13 03:40:00,34.0,5.8,30.09,SSW,209,5.4,8.3,30,0.00,,SKC,0.00,VWS V14.01,2013-03-13 07:40:00,
2013-03-13 04:00:00,33.6,5.5,30.06,West,275,0.0,5.4,30,0.00,,SKC,0.00,VWS V14.01,2013-03-13 08:00:00,
2013-03-13 04:20:00,33.3,3.7,30.06,WNW,291,0.0,8.1,28,0.00,,SKC,0.00,VWS V14.01,2013-03-13 08:20:00,
2013-03-13 04:40:00,32.9,0.9,30.06,WNW,301,0.0,8.3,25,0.00,,SKC,0.00,VWS V14.01,2013-03-13 08:40:00,
2013-03-13 05:00:00,32.5,-1.1,30.06,WNW,286,7.2,8.1,23,0.00,,SKC,0.00,VWS V14.01,2013-03-13 09:00:00,
2013-03-13 05:20:00,32.2,-1.4,30.06,WSW,257,3.6,8.1,23,0.00,,SKC,0.00,VWS V14.01,2013-03-13 09:20:00,
2013-03-13 05:40:00,32.0,-1.6,30.06,West,259,3.6,11.0,23,0.00,,SKC,0.00,VWS V14.01,2013-03-13 09:40:00,
2013-03-13 06:00:00,30.9,-2.5,30.06,NNW,341,0.0,7.6,23,0.00,,SKC,0.00,VWS V14.01,2013-03-13 10:00:00,
2013-03-13 06:20:00,30.4,-3.0,30.06,NW,315,5.4,7.6,23,0.00,,SKC,0.00,VWS V14.01,2013-03-13 10:20:00,
2013-03-13 06:40:00,29.5,-3.7,30.06,WNW,286,0.0,5.4,23,0.00,,SKC,0.00,VWS V14.01,2013-03-13 10:40:00,
2013-03-13 07:00:00,28.4,-4.7,30.06,WNW,286,0.0,5.4,23,0.00,,SKC,0.00,VWS V14.01,2013-03-13 11:00:00,
2013-03-13 07:20:00,28.0,-2.4,30.06,WNW,287,0.0,7.6,26,0.00,,SKC,0.00,VWS V14.01,2013-03-13 11:20:00,
2013-03-13 10:40:00,34.7,2.5,30.09,WNW,284,6.7,11.0,25,0.00,,SKC,0.00,VWS V14.01,2013-03-13 14:40:00,
2013-03-13 11:00:00,34.3,6.1,30.09,West,268,8.3,8.3,30,0.00,,SKC,0.00,VWS V14.01,2013-03-13 15:00:00,
2013-03-13 11:20:00,35.1,8.9,30.09,West,277,4.9,11.0,33,0.00,,SKC,0.00,VWS V14.01,2013-03-13 15:20:00,
2013-03-13 11:40:00,32.9,6.3,30.09,WNW,286,8.1,8.1,32,0.00,,SKC,0.00,VWS V14.01,2013-03-13 15:40:00,
2013-03-13 12:00:00,32.4,9.6,30.09,WNW,282,3.1,10.1,38,0.00,,SKC,0.00,VWS V14.01,2013-03-13 16:00:00,
2013-03-13 12:20:00,35.2,13.9,30.09,NNW,342,10.5,10.5,41,0.00,,SKC,0.00,VWS V14.01,2013-03-13 16:20:00,
2013-03-13 12:40:00,36.9,3.5,30.06,WNW,290,5.4,10.5,24,0.00,,SKC,0.00,VWS V14.01,2013-03-13 16:40:00,
2013-03-13 13:00:00,37.4,3.9,30.09,West,270,10.5,14.1,24,0.00,,SKC,0.00,VWS V14.01,2013-03-13 17:00:00,
2013-03-13 13:20:00,37.6,1.2,30.09,WNW,286,10.5,11.9,21,0.00,,SKC,0.00,VWS V14.01,2013-03-13 17:20:00,
2013-03-13 13:40:00,37.8,8.4,30.09,SSE,164,5.4,12.3,29,0.00,,SKC,0.00,VWS V14.01,2013-03-13 17:40:00,
2013-03-13 14:00:00,36.3,1.1,30.09,WNW,284,7.2,13.2,22,0.00,,SKC,0.00,VWS V14.01,2013-03-13 18:00:00,
2013-03-13 14:20:00,35.4,0.4,30.09,NW,309,10.1,10.1,22,0.00,,SKC,0.00,VWS V14.01,2013-03-13 18:20:00,
2013-03-13 14:40:00,37.0,1.7,30.09,NNW,346,6.3,15.9,22,0.00,,SKC,0.00,VWS V14.01,2013-03-13 18:40:00,
2013-03-13 15:00:00,36.3,1.1,30.06,West,281,8.7,10.5,22,0.00,,SKC,0.00,VWS V14.01,2013-03-13 19:00:00,
2013-03-13 15:20:00,36.9,1.6,30.06,West,278,7.6,15.0,22,0.00,,SKC,0.00,VWS V14.01,2013-03-13 19:20:00,
2013-03-13 15:40:00,37.0,1.7,30.06,West,262,5.8,12.8,22,0.00,,SKC,0.00,VWS V14.01,2013-03-13 19:40:00,
2013-03-13 16:00:00,36.7,1.4,30.09,North,357,10.1,12.8,22,0.00,,SKC,0.00,VWS V14.01,2013-03-13 20:00:00,
2013-03-13 16:20:00,36.7,1.4,30.09,WNW,303,8.7,11.9,22,0.00,,SKC,0.00,VWS V14.01,2013-03-13 20:20:00,
2013-03-13 16:40:00,36.1,1.0,30.06,WNW,293,4.9,12.8,22,0.00,,SKC,0.00,VWS V14.01,2013-03-13 20:40:00,
2013-03-13 17:00:00,35.2,0.2,30.09,NW,314,8.7,10.1,22,0.00,,SKC,0.00,VWS V14.01,2013-03-13 21:00:00,
2013-03-13 17:20:00,34.3,-0.6,30.09,NW,311,5.8,10.1,22,0.00,,SKC,0.00,VWS V14.01,2013-03-13 21:20:00,
2013-03-13 17:40:00,33.6,-0.2,30.12,WNW,299,4.0,10.5,23,0.00,,SKC,0.00,VWS V14.01,2013-03-13 21:40:00,
2013-03-13 18:00:00,33.1,-0.7,30.12,WNW,292,16.8,16.8,23,0.00,,SKC,0.00,VWS V14.01,2013-03-13 22:00:00,
2013-03-13 18:20:00,32.9,-0.8,30.12,WNW,300,5.8,16.8,23,0.00,,SKC,0.00,VWS V14.01,2013-03-13 22:20:00,
2013-03-13 18:40:00,32.5,-1.1,30.12,NW,306,8.3,10.5,23,0.00,,SKC,0.00,VWS V14.01,2013-03-13 22:40:00,
2013-03-13 19:00:00,31.5,-2.0,30.12,NW,313,7.2,10.5,23,0.00,,SKC,0.00,VWS V14.01,2013-03-13 23:00:00,
2013-03-13 19:20:00,30.6,-2.8,30.12,NW,310,7.6,10.5,23,0.00,,SKC,0.00,VWS V14.01,2013-03-13 23:20:00,
2013-03-13 19:40:00,29.7,-3.6,30.12,WSW,257,7.6,11.9,23,0.00,,SKC,0.00,VWS V14.01,2013-03-13 23:40:00,
2013-03-13 20:00:00,28.4,-4.7,30.12,NW,309,8.3,12.3,23,0.00,,SKC,0.00,VWS V14.01,2013-03-14 00:00:00,
2013-03-13 20:20:00,28.6,-4.5,30.12,WNW,290,10.1,13.2,23,0.00,,SKC,0.00,VWS V14.01,2013-03-14 00:20:00,
2013-03-13 20:40:00,28.0,-5.0,30.15,West,262,4.0,10.5,23,0.00,,SKC,0.00,VWS V14.01,2013-03-14 00:40:00,
2013-03-13 21:00:00,27.9,-5.1,30.15,WNW,294,10.1,13.2,23,0.00,,SKC,0.00,VWS V14.01,2013-03-14 01:00:00,
2013-03-13 21:20:00,27.0,-5.9,30.15,SE,134,8.7,14.1,23,0.00,,SKC,0.00,VWS V14.01,2013-03-14 01:20:00,
2013-03-13 21:40:00,26.6,-5.3,30.15,WNW,299,5.8,23.3,24,0.00,,SKC,0.00,VWS V14.01,2013-03-14 01:40:00,
2013-03-13 22:00:00,25.7,-6.1,30.15,NNW,329,7.2,13.2,24,0.00,,SKC,0.00,VWS V14.01,2013-03-14 02:00:00,
2013-03-13 22:20:00,25.3,-6.4,30.15,WNW,298,24.2,24.2,24,0.00,,SKC,0.00,VWS V14.01,2013-03-14 02:20:00,
2013-03-13 22:40:00,24.8,-6.9,30.15,West,278,9.2,24.2,24,0.00,,SKC,0.00,VWS V14.01,2013-03-14 02:40:00,
2013-03-13 23:00:00,24.6,-7.0,30.15,West,281,11.0,11.0,24,0.00,,SKC,0.00,VWS V14.01,2013-03-14 03:00:00,
2013-03-13 23:20:00,24.4,-7.2,30.15,West,275,11.0,11.0,24,0.00,,SKC,0.00,VWS V14.01,2013-03-14 03:20:00,
2013-03-13 23:40:00,24.3,-7.3,30.15,West,260,5.4,11.0,24,0.00,,SKC,0.00,VWS V14.01,2013-03-14 03:40:00,